Weather in Khodosivka

Ukraine / Kyiv Region     50°15′33″N   30°32′04″E
temp.,
°C
wind,
m/s
gust,
m/s
humid.,
%
clouds,
%
prec.,
mm/h
press.,
hPa
HPBL,
m
7 may, fri
fri700:00+7wsw336398 0.0 101351
03:00+7wsw22615 0.0 101424
06:00+6ssw3374100 0.0 101344
09:00+11s456398 0.0 1013385
12:00+15s6950100 0.0 10121721
15:00+14s71265100 0.1 10101050
18:00+14s51082100 1.7 1007528
21:00+12ssw3695100 5.0 1007200
8 may, sat
sat800:00+11wsw2297100 2.2 100666
03:00+11w2697100 2.7 1005297
06:00+10wnw3695100 1.6 1006339
09:00+7wnw101490100 2.3 1009737
12:00+8w9127732 0.2 1011995
15:00+8w91268100 0.3 10131487
18:00+5wnw81382100 0.1 1015845
21:00+5wnw6118759 0.2 1017646
9 may, sun
sun900:00+4wnw612881 0.0 1019424
03:00+3wnw512900 0.0 1021344
06:00+2wnw410910 0.0 1022253
09:00+8nw58684 0.0 1024700
12:00+12wnw685282 0.0 10241954
15:00+13nw5746100 0.0 10242206
18:00+13nne235381 0.0 10251066
21:00+8ese22695 0.0 102711
10 may, mon
mon1000:00+6ssw22735 0.0 102815
03:00+5sw22750 0.0 102812
06:00+5se11770 0.0 102910
09:00+11ese22600 0.0 1029352
12:00+15e22450 0.0 10291346
15:00+16e33410 0.0 10271596
18:00+16ene34500 0.0 10261255
21:00+10ene23710 0.0 102733
11 may, tue
tue1100:00+8ne23740 0.0 102733
03:00+6nne33800 0.0 102643
06:00+7n37795 0.0 1026137
09:00+12nne57610 0.0 1024427
12:00+17ne57580 0.0 1023741
15:00+20ne67560 0.0 10211133
18:00+19ne69707 0.1 10201209
21:00+13ese611925 1.1 1021581